Regional Weather Roundup
Issued by NWS Sioux Falls, SD

Home | Current Version | Previous Version | Text Only | Print | Product List | Glossary On
Versions: 1 2 3 4 5 6 7 8 9 10 11 12 13 14 15 16 17 18 19 20 21 22 23 24 25 26 27 28 29 30 31 32 33 34 35 36 37 38 39 40 41 42 43 44 45 46 47 48 49 50
000
ASUS43 KFSD 010710
RWRFSD

WEATHER ROUNDUP FOR SE SOUTH DAKOTA/SW MINNESOTA/NW IOWA
NATIONAL WEATHER SERVICE SIOUX FALLS SD
200 AM CDT SAT OCT 01 2016

NOTE: "FAIR" INDICATES FEW OR NO CLOUDS BELOW 12,000 FEET WITH NO
SIGNIFICANT WEATHER AND OR OBSTRUCTIONS TO VISIBILITY.


SDZ038>040-050-052>070-010800-
SOUTHEAST SOUTH DAKOTA

CITY           SKY/WX    TMP DP  RH WIND       PRES   REMARKS
BROOKINGS      PTCLDY    52  48  86 SE6       30.18S
CHAMBERLAIN    CLOUDY    55  49  79 SE6       30.12S
HURON          PTCLDY    50  45  83 S7        30.14S
MADISON        FAIR      48  48 100 SE5       30.18F
MITCHELL       PTCLDY    50  45  83 S6        30.16R
SIOUX FALLS    CLOUDY    50  47  89 NE5       30.18S
WINNER         FAIR      60  44  55 S15       30.10S
YANKTON        PTCLDY    52  46  82 E6        30.15S
$$

MNZ071-072-080-081-089-090-097-098-010800-
SOUTHWEST MINNESOTA

CITY           SKY/WX    TMP DP  RH WIND       PRES   REMARKS
FAIRMONT       CLOUDY    60  55  83 CALM      30.17F
JACKSON        CLOUDY    59  52  77 CALM      30.19S
LUVERNE        CLOUDY    48  45  87 CALM      30.19S
MARSHALL       CLOUDY    46  44  93 CALM      30.19S
MONTEVIDEO     CLEAR     46  43  87 CALM      30.21R
PIPESTONE      CLOUDY    54  48  82 SE3       30.18S
REDWOOD FALLS  CLEAR     55  49  80 E5        30.19R
TRACY          CLEAR     55  50  83 SE6       30.19S
WINDOM         CLOUDY    55  50  82 CALM      30.19S
WORTHINGTON    CLOUDY    50  48  93 CALM      30.19S
$$

IAZ001>003-012>014-020>022-031-032-NEZ013-014-SDZ071-010800-
NORTHWEST IOWA

CITY           SKY/WX    TMP DP  RH WIND       PRES   REMARKS
CHEROKEE       CLOUDY    57  56  95 CALM      30.17S
DENISON        CLOUDY    55  54  94 CALM      30.14S
ESTHERVILLE    CLOUDY    59  56  89 NW3       30.17S
LE MARS        CLOUDY    54  52  94 CALM      30.18S
SHELDON        CLOUDY    54  54 100 CALM      30.17R
SIOUX CITY     CLOUDY    55  52  89 CALM      30.17S
SPENCER        CLOUDY    58  55  90 CALM      30.17F
STORM LAKE     CLOUDY    59  55  88 CALM      30.17S
$$

ABBREVIATIONS USED IN REMARKS
   TC - TEMPERATURE IN CELSIUS
  WCI - WIND CHILL INDEX
   HX - HEAT INDEX
  VSB - VISIBILITY




USA.gov is the U.S. government's official web portal to all federal, state and local government web resources and services.